Location: Peach Mountain Observatory
(42.3967°N, 83.9367°W)
Time: 05:22:53
(UTC-05:00)

Transit 4A - Pass Details

Date: 17 January 2020
Orbit: 872 x 973 km, 66.8° (Epoch: 25 February)

Event Time Altitude Azimuth Distance (km) Brightness Sun altitude
Rises 19:18:18 0° 313° (NW) 3,467 11.4 -19.6°
Reaches altitude 10° 19:21:40 10° 294° (WNW) 2,526 11.0 -20.2°
Maximum altitude 19:25:12 17° 256° (WSW) 2,087 10.7 -20.9°
Drops below altitude 10° 19:28:45 10° 218° (SW) 2,533 10.8 -21.5°
Sets 19:32:09 0° 199° (SSW) 3,481 11.3 -22.1°
